Overview Statistics Trail Chart Weather Telemetry Raw packets
 

This is the latest recevied weather packets stored in our database for station/object JA7ZQY-10. If no packets are shown the sender has not sent any weather packets the latest 10 day(s).

<< 43 44 45 46 47 48 49 >>
Time Temp. Humidity Pressure Rain* Wind** Luminosity Snow
1787915769 22.22° C 73% 1012.8 hPa 0 mm - - -
1787915168 22.22° C 72% 1012.8 hPa 0 mm - - -
1787914569 22.22° C 72% 1012.5 hPa 0 mm - - -
1787913970 22.22° C 71% 1012.7 hPa 0 mm - - -
1787913369 22.78° C 68% 1012.3 hPa 0 mm - - -
1787912768 22.78° C 68% 1012.3 hPa 0 mm - - -
1787912168 22.78° C 67% 1012.1 hPa 0 mm - - -
1787911569 22.78° C 66% 1012 hPa 0 mm - - -
1787910968 23.33° C 66% 1012 hPa 0 mm - - -
1787910369 23.33° C 66% 1011.7 hPa 0 mm - - -
1787909768 23.33° C 65% 1011.3 hPa 0 mm - - -
1787909168 23.33° C 64% 1011.6 hPa 0 mm - - -
1787908569 23.33° C 64% 1011.4 hPa 0 mm - - -
1787907969 23.33° C 62% 1011.4 hPa 0 mm - - -
1787907368 23.89° C 61% 1011.3 hPa 0 mm - - -
1787906770 23.89° C 61% 1011 hPa 0 mm - - -
1787906168 24.44° C 61% 1011.1 hPa 0 mm - - -
1787905569 23.89° C 61% 1011 hPa 0 mm - - -
1787904969 24.44° C 61% 1011.2 hPa 0 mm - - -
1787904368 24.44° C 62% 1010.9 hPa 0 mm - - -
1787903770 25° C 61% 1011 hPa 0 mm - - -
1787903167 24.44° C 61% 1011 hPa 0 mm - - -
1787902567 25° C 60% 1011 hPa 0 mm - - -
1787901967 25.56° C 59% 1010.7 hPa 0 mm - - -
1787901369 25.56° C 61% 1010.6 hPa 0 mm - - -

* Rain latest hour (hover to see other rain measurements)
** Current wind speed in m/s (hover to see current wind gust speed)